| time (UTC) | temp F | wind direction | speed MPH | gust MPH | rain 1hr in | rain 24hr in | rain mn in | humidity % | barometer mb |
| 20260905223105 | 54 | 198 | 0.0 | 5.0 | 0.00 | 0.22 | 0.00 | 92 | 1020.5 |
| 20260905221619 | 54 | 200 | 1.0 | 4.0 | 0.00 | 0.22 | 0.00 | 92 | 1020.4 |
| 20260905220104 | 54 | 0 | 2.0 | 6.0 | 0.00 | 0.22 | 0.00 | 92 | 1020.2 |
| 20260905214608 | 54 | 140 | 2.0 | 4.0 | 0.00 | 0.22 | 0.00 | 92 | 1019.8 |
| 20260905213105 | 54 | 138 | 1.0 | 7.0 | 0.00 | 0.22 | 0.00 | 92 | 1019.6 |
| 20260905211605 | 54 | 44 | 2.0 | 9.0 | 0.00 | 0.22 | 0.00 | 93 | 1019.5 |
| 20260905210111 | 54 | 207 | 1.0 | 4.0 | 0.00 | 0.22 | 0.00 | 93 | 1019.4 |
| 20260905204558 | 54 | 132 | 2.0 | 7.0 | 0.00 | 0.22 | 0.00 | 93 | 1019.0 |
| 20260905203102 | 53 | 219 | 1.0 | 7.0 | 0.00 | 0.22 | 0.00 | 93 | 1018.7 |
| 20260905201600 | 53 | 247 | 1.0 | 6.0 | 0.00 | 0.22 | 0.00 | 93 | 1018.3 |
| 20260905200129 | 53 | 71 | 1.0 | 6.0 | 0.00 | 0.22 | 0.00 | 93 | 1018.0 |
| 20260905194603 | 53 | 248 | 2.0 | 9.0 | 0.00 | 0.22 | 0.00 | 93 | 1017.8 |
| 20260905193101 | 53 | 153 | 0.0 | 6.0 | 0.00 | 0.22 | 0.00 | 93 | 1017.4 |
| 20260905191602 | 53 | 197 | 1.0 | 8.0 | 0.00 | 0.22 | 0.00 | 93 | 1017.1 |
| 20260905190105 | 53 | 204 | 1.0 | 6.0 | 0.00 | 0.22 | 0.00 | 94 | 1017.1 |
| 20260905184606 | 54 | 180 | 0.0 | 4.0 | 0.00 | 0.22 | 0.00 | 93 | 1017.1 |
| 20260905183105 | 54 | 0 | 0.0 | 6.0 | 0.00 | 0.22 | 0.00 | 94 | 1017.1 |
| 20260905181607 | 54 | 140 | 0.0 | 4.0 | 0.00 | 0.22 | 0.00 | 94 | 1017.1 |
| 20260905180116 | 55 | 0 | 0.0 | 2.0 | 0.00 | 0.22 | 0.00 | 94 | 1017.1 |
| 20260905174605 | 55 | 0 | 0.0 | 1.0 | 0.00 | 0.22 | 0.00 | 94 | 1017.1 |
| 20260905173127 | 55 | 0 | 0.0 | 2.0 | 0.00 | 0.22 | 0.00 | 94 | 1016.9 |
| 20260905171600 | 56 | 103 | 0.0 | 0.0 | 0.00 | 0.22 | 0.00 | 94 | 1016.8 |
| 20260905170106 | 56 | 0 | 0.0 | 0.0 | 0.00 | 0.22 | 0.00 | 94 | 1016.5 |
| 20260905164614 | 56 | 0 | 0.0 | 0.0 | 0.00 | 0.22 | 0.00 | 94 | 1016.2 |
| 20260905163103 | 56 | 0 | 0.0 | 0.0 | 0.00 | 0.22 | 0.00 | 94 | 1016.1 |
| 20260905161605 | 56 | 0 | 0.0 | 0.0 | 0.00 | 0.22 | 0.00 | 94 | 1016.0 |
| 20260905160107 | 56 | 0 | 0.0 | 0.0 | 0.00 | 0.22 | 0.00 | 94 | 1016.0 |
| 20260905154605 | 56 | 0 | 0.0 | 0.0 | 0.00 | 0.22 | 0.22 | 93 | 1016.0 |
| 20260905153100 | 56 | 0 | 0.0 | 0.0 | 0.00 | 0.21 | 0.21 | 93 | 1016.0 |
| 20260905151606 | 56 | 0 | 0.0 | 1.0 | 0.00 | 0.21 | 0.21 | 93 | 1016.1 |
| 20260905150127 | 56 | 0 | 0.0 | 2.0 | 0.00 | 0.21 | 0.21 | 93 | 1016.2 |
| 20260905144609 | 56 | 0 | 0.0 | 1.0 | 0.00 | 0.21 | 0.21 | 93 | 1016.1 |
| 20260905143104 | 56 | 0 | 0.0 | 0.0 | 0.00 | 0.21 | 0.21 | 93 | 1016.1 |
| 20260905141605 | 56 | 184 | 0.0 | 2.0 | 0.00 | 0.21 | 0.21 | 93 | 1016.1 |
| 20260905140113 | 56 | 0 | 0.0 | 0.0 | 0.00 | 0.21 | 0.21 | 93 | 1016.1 |
| 20260905134606 | 56 | 0 | 0.0 | 1.0 | 0.01 | 0.21 | 0.21 | 92 | 1016.0 |
| 20260905133105 | 56 | 0 | 0.0 | 0.0 | 0.01 | 0.21 | 0.21 | 92 | 1016.0 |
| 20260905131600 | 56 | 0 | 0.0 | 0.0 | 0.00 | 0.20 | 0.20 | 92 | 1016.0 |
| 20260905124600 | 56 | 0 | 0.0 | 2.0 | 0.00 | 0.19 | 0.19 | 91 | 1015.8 |
| 20260905123106 | 56 | 0 | 0.0 | 1.0 | 0.03 | 0.19 | 0.19 | 91 | 1015.5 |
| 20260905121605 | 57 | 0 | 0.0 | 1.0 | 0.12 | 0.19 | 0.19 | 91 | 1015.7 |
| 20260905120112 | 57 | 0 | 0.0 | 5.0 | 0.16 | 0.19 | 0.19 | 91 | 1015.6 |
| 20260905114611 | 57 | 244 | 1.0 | 7.0 | 0.15 | 0.18 | 0.18 | 90 | 1015.6 |
| 20260905113102 | 57 | 342 | 2.0 | 7.0 | 0.13 | 0.16 | 0.16 | 89 | 1015.3 |
| 20260905111653 | 58 | 331 | 2.0 | 7.0 | 0.03 | 0.07 | 0.07 | 88 | 1015.2 |
| 20260905110059 | 58 | 5 | 1.0 | 8.0 | 0.00 | 0.03 | 0.03 | 87 | 1015.0 |
| 20260905104559 | 59 | 0 | 1.0 | 6.0 | 0.00 | 0.03 | 0.03 | 87 | 1014.8 |
| 20260905103109 | 59 | 349 | 1.0 | 10.0 | 0.00 | 0.03 | 0.03 | 85 | 1014.7 |
| 20260905101602 | 60 | 304 | 3.0 | 10.0 | 0.00 | 0.03 | 0.03 | 83 | 1014.3 |
| 20260905100104 | 61 | 338 | 2.0 | 8.0 | 0.00 | 0.03 | 0.03 | 79 | 1014.3 |
| 20260905094605 | 62 | 79 | 0.0 | 3.0 | 0.00 | 0.03 | 0.03 | 75 | 1014.0 |
| 20260905093122 | 62 | 313 | 1.0 | 6.0 | 0.00 | 0.03 | 0.03 | 74 | 1013.9 |
| 20260905091604 | 63 | 289 | 1.0 | 9.0 | 0.00 | 0.03 | 0.03 | 73 | 1013.7 |
| 20260905084603 | 63 | 0 | 1.0 | 11.0 | 0.00 | 0.03 | 0.03 | 68 | 1013.6 |
| 20260905083059 | 64 | 350 | 1.0 | 8.0 | 0.00 | 0.03 | 0.03 | 67 | 1013.7 |
| 20260905081603 | 64 | 0 | 0.0 | 5.0 | 0.00 | 0.03 | 0.03 | 70 | 1014.0 |
| 20260905074611 | 64 | 256 | 1.0 | 14.0 | 0.00 | 0.03 | 0.03 | 72 | 1014.3 |
| 20260905073104 | 65 | 282 | 2.0 | 10.0 | 0.00 | 0.03 | 0.03 | 70 | 1014.3 |
| 20260905071558 | 64 | 40 | 2.0 | 9.0 | 0.00 | 0.03 | 0.03 | 71 | 1014.4 |
| 20260905070106 | 64 | 355 | 2.0 | 8.0 | 0.00 | 0.03 | 0.03 | 71 | 1014.4 |
| 20260905064631 | 65 | 0 | 2.0 | 14.0 | 0.00 | 0.03 | 0.03 | 74 | 1014.3 |
| 20260905063103 | 65 | 355 | 2.0 | 8.0 | 0.01 | 0.03 | 0.03 | 75 | 1014.6 |
| 20260905061604 | 63 | 45 | 1.0 | 4.0 | 0.03 | 0.03 | 0.03 | 82 | 1014.6 |
| 20260905060111 | 60 | 48 | 1.0 | 14.0 | 0.03 | 0.03 | 0.03 | 88 | 1015.0 |
| 20260905054607 | 59 | 310 | 1.0 | 6.0 | 0.03 | 0.03 | 0.03 | 87 | 1015.4 |
| 20260905053104 | 59 | 36 | 1.0 | 9.0 | 0.01 | 0.01 | 0.01 | 84 | 1015.4 |
| 20260905051558 | 62 | 355 | 3.0 | 10.0 | 0.00 | 0.00 | 0.00 | 73 | 1015.6 |
| 20260905050108 | 65 | 304 | 2.0 | 11.0 | 0.00 | 0.00 | 0.00 | 63 | 1015.6 |
| 20260905044606 | 65 | 310 | 3.0 | 10.0 | 0.00 | 0.00 | 0.00 | 64 | 1016.0 |
| 20260905043108 | 66 | 323 | 2.0 | 6.0 | 0.00 | 0.00 | 0.00 | 62 | 1016.1 |
| 20260905041603 | 67 | 360 | 2.0 | 9.0 | 0.00 | 0.00 | 0.00 | 61 | 1016.1 |
| 20260905034609 | 65 | 360 | 1.0 | 5.0 | 0.00 | 0.00 | 0.00 | 65 | 1016.7 |
| 20260905033101 | 65 | 360 | 1.0 | 7.0 | 0.00 | 0.00 | 0.00 | 65 | 1016.8 |
| 20260905031605 | 65 | 355 | 1.0 | 7.0 | 0.00 | 0.00 | 0.00 | 65 | 1017.1 |
| 20260905030119 | 64 | 24 | 0.0 | 4.0 | 0.00 | 0.00 | 0.00 | 68 | 1017.2 |
| 20260905024605 | 62 | 28 | 0.0 | 3.0 | 0.00 | 0.00 | 0.00 | 71 | 1017.7 |
| 20260905023101 | 62 | 24 | 1.0 | 6.0 | 0.00 | 0.00 | 0.00 | 72 | 1017.8 |
| 20260905021604 | 61 | 0 | 0.0 | 4.0 | 0.00 | 0.00 | 0.00 | 74 | 1018.0 |
| 20260905020107 | 62 | 13 | 0.0 | 2.0 | 0.00 | 0.00 | 0.00 | 76 | 1018.0 |
| 20260905014603 | 61 | 75 | 1.0 | 5.0 | 0.00 | 0.00 | 0.00 | 77 | 1018.4 |
| 20260905013101 | 62 | 0 | 0.0 | 3.0 | 0.00 | 0.00 | 0.00 | 80 | 1018.4 |
| 20260905011608 | 61 | 81 | 0.0 | 2.0 | 0.00 | 0.00 | 0.00 | 81 | 1018.6 |
| 20260905010103 | 59 | 5 | 1.0 | 4.0 | 0.00 | 0.00 | 0.00 | 83 | 1018.8 |
| 20260905004608 | 58 | 0 | 0.0 | 5.0 | 0.00 | 0.00 | 0.00 | 85 | 1018.9 |
| 20260905003101 | 58 | 27 | 1.0 | 6.0 | 0.00 | 0.00 | 0.00 | 82 | 1019.1 |
| 20260905001609 | 58 | 0 | 0.0 | 2.0 | 0.00 | 0.00 | 0.00 | 80 | 1018.9 |
| 20260905000105 | 58 | 5 | 0.0 | 2.0 | 0.00 | 0.00 | 0.00 | 80 | 1018.6 |
| 20260904234608 | 57 | 0 | 0.0 | 1.0 | 0.00 | 0.00 | 0.00 | 80 | 1018.5 |
| 20260904233103 | 57 | 29 | 0.0 | 4.0 | 0.00 | 0.00 | 0.00 | 78 | 1018.4 |
| 20260904231604 | 57 | 0 | 0.0 | 1.0 | 0.00 | 0.00 | 0.00 | 78 | 1018.4 |
| 20260904230106 | 57 | 0 | 0.0 | 1.0 | 0.00 | 0.00 | 0.00 | 75 | 1018.2 |
| 20260904224602 | 56 | 0 | 0.0 | 1.0 | 0.00 | 0.00 | 0.00 | 75 | 1018.2 |